Weather History for Fort Payne, AL

Change the Weather History Date:

Tuesday, October 22, 2013

  Actual Average (KRMG) Record (KRMG)
Temperature  
Mean Temperature 58 °F 59 °F  
Max Temperature 71 °F 72 °F 84 °F (2001)
Min Temperature 44 °F 46 °F 33 °F (2011)
Degree Days  
Heating Degree Days 6 7  
Month to date heating degree days 88  
Since 1 July heating degree days 102  
Cooling Degree Days 0 1  
Month to date cooling degree days 38  
Year to date cooling degree days 1628  
Growing Degree Days 8 (Base 50)    
Moisture  
Dew Point 47 °F    
Average Humidity 72    
Maximum Humidity 94    
Minimum Humidity 35    
Precipitation  
Precipitation 0.00 in 0.12 in 0.46 in (2007)
Month to date precipitation 2.80  
Snow  
Snow 0.00 in - - ()
Month to date snowfall  
Since 1 July snowfall  
Since 1 September snowfall  
Snow Depth -    
Sea Level Pressure  
Sea Level Pressure 29.96 in    
Wind  
Wind Speed 1 mph (WNW)    
Max Wind Speed 12 mph    
Max Gust Speed 16 mph    
Visibility 10 miles    
Events Rain    
T = Trace of Precipitation, MM = Missing Value Source: NWS Daily Summary

Daily Weather History Graph

Daily Weather History Graph

Search for Another Location

Airport:

Trip Planner

Search our weather history database for the weather conditions in past years. The results will help you decide how hot, cold, wet, or windy it might be!

Date:

Astronomy

Oct. 22, 2013 Rise Set
Actual Time 6:54 AM CDT 5:59 PM CDT
Civil Twilight 6:28 AM CDT 6:25 PM CDT
Nautical Twilight 5:59 AM CDT 6:54 PM CDT
Astronomical Twilight 5:30 AM CDT 7:23 PM CDT
Moon 8:46 PM CDT (10/22) 10:15 AM CDT (10/22)
Length of Visible Light 11h 56m
Length of Day
11h 05m
Waning Gibbous, 86% of the Moon is Illuminated
Oct 22
Waning Gibbous
Oct 26
Last Quarter
Nov 3
New
Nov 9
First Quarter
Nov 17
Full

Hourly Weather History & Observations

Time (CDT) Temp. Dew Point Humidity Pressure Visibility Wind Dir Wind Speed Gust Speed Precip Events Conditions
12:15 AM 51.8 °F 46.4 °F 82% 30.03 in 10.0 mi Calm Calm - N/A   Mostly Cloudy
12:35 AM 51.8 °F 46.4 °F 82% 30.03 in 10.0 mi Calm Calm - N/A   Mostly Cloudy
12:55 AM 51.8 °F 46.4 °F 82% 30.03 in 10.0 mi Calm Calm - N/A   Overcast
1:15 AM 53.6 °F 48.2 °F 82% 30.04 in 10.0 mi Calm Calm - N/A Rain Light Rain
1:35 AM 53.6 °F 48.2 °F 82% 30.04 in 10.0 mi Calm Calm - N/A   Overcast
1:55 AM 51.8 °F 48.2 °F 88% 30.02 in 10.0 mi Calm Calm - N/A   Mostly Cloudy
2:15 AM 51.8 °F 48.2 °F 88% 30.03 in 10.0 mi Calm Calm - N/A Rain Light Rain
2:35 AM 53.6 °F 48.2 °F 82% 30.02 in 10.0 mi Calm Calm - N/A   Mostly Cloudy
2:55 AM 53.6 °F 48.2 °F 82% 30.01 in 10.0 mi Calm Calm - N/A   Mostly Cloudy
3:15 AM 51.8 °F 48.2 °F 88% 30.01 in 10.0 mi Calm Calm - N/A Rain Light Rain
3:35 AM 53.6 °F 48.2 °F 82% 30.01 in 10.0 mi Calm Calm - N/A Rain Light Rain
3:55 AM 51.8 °F 48.2 °F 88% 30.00 in 10.0 mi Calm Calm - N/A   Mostly Cloudy
4:15 AM 51.8 °F 50.0 °F 94% 30.00 in 10.0 mi Calm Calm - N/A   Overcast
4:35 AM 51.8 °F 50.0 °F 94% 30.01 in 10.0 mi Calm Calm - N/A   Overcast
4:55 AM 51.8 °F 48.2 °F 88% 30.00 in 10.0 mi Calm Calm - N/A   Overcast
5:15 AM 51.8 °F 50.0 °F 94% 30.00 in 10.0 mi Calm Calm - N/A   Overcast
5:35 AM 51.8 °F 50.0 °F 94% 30.01 in 10.0 mi Calm Calm - N/A   Overcast
5:55 AM 51.8 °F 50.0 °F 94% 30.01 in 10.0 mi Calm Calm - N/A   Mostly Cloudy
6:15 AM 51.8 °F 48.2 °F 88% 30.01 in 10.0 mi Calm Calm - N/A   Scattered Clouds
6:35 AM 51.8 °F 46.4 °F 82% 30.00 in 10.0 mi Calm Calm - N/A   Clear
6:55 AM 50.0 °F 48.2 °F 94% 30.01 in 10.0 mi Calm Calm - N/A   Scattered Clouds
7:15 AM 50.0 °F 48.2 °F 94% 30.01 in 10.0 mi Calm Calm - N/A   Scattered Clouds
7:35 AM 51.8 °F 48.2 °F 88% 30.01 in 10.0 mi Calm Calm - N/A   Scattered Clouds
7:55 AM 51.8 °F 48.2 °F 88% 30.01 in 10.0 mi Calm Calm - N/A   Mostly Cloudy
8:15 AM 51.8 °F 48.2 °F 88% 30.01 in 10.0 mi Calm Calm - N/A   Scattered Clouds
8:35 AM 53.6 °F 50.0 °F 88% 30.01 in 10.0 mi Calm Calm - N/A   Unknown
8:55 AM 55.4 °F 50.0 °F 82% 30.01 in 10.0 mi Calm Calm - N/A   Clear
9:15 AM 59.0 °F 50.0 °F 72% 30.01 in 10.0 mi Calm Calm - N/A   Scattered Clouds
9:35 AM 60.8 °F 48.2 °F 63% 30.00 in 10.0 mi Calm Calm - N/A   Scattered Clouds
9:55 AM 60.8 °F 50.0 °F 68% 30.00 in 10.0 mi Calm Calm - N/A   Scattered Clouds
10:15 AM 62.6 °F 50.0 °F 63% 29.99 in 10.0 mi Calm Calm - N/A   Mostly Cloudy
10:35 AM 64.4 °F 48.2 °F 56% 29.99 in 10.0 mi NNW 3.5 mph - N/A   Mostly Cloudy
10:55 AM 64.4 °F 46.4 °F 52% 29.98 in 10.0 mi West 4.6 mph - N/A   Overcast
11:15 AM 66.2 °F 46.4 °F 49% 29.97 in 10.0 mi Calm Calm - N/A   Scattered Clouds
11:35 AM 68.0 °F 46.4 °F 46% 29.96 in 10.0 mi NNW 8.1 mph - N/A   Clear
11:55 AM 68.0 °F 46.4 °F 46% 29.95 in 10.0 mi North 3.5 mph - N/A   Clear
12:15 PM 69.8 °F 44.6 °F 40% 29.94 in 10.0 mi NNW 3.5 mph - N/A   Scattered Clouds
12:35 PM 69.8 °F 42.8 °F 38% 29.93 in 10.0 mi WNW 5.8 mph - N/A   Mostly Cloudy
12:55 PM 69.8 °F 42.8 °F 38% 29.92 in 10.0 mi Calm Calm - N/A   Scattered Clouds
1:15 PM 71.6 °F 42.8 °F 35% 29.91 in 10.0 mi WSW 4.6 mph - N/A   Scattered Clouds
1:35 PM 69.8 °F 42.8 °F 38% 29.91 in 10.0 mi NW 9.2 mph - N/A   Mostly Cloudy
1:55 PM 69.8 °F 44.6 °F 40% 29.91 in 10.0 mi NW 9.2 mph 16.1 mph N/A   Mostly Cloudy
2:15 PM 69.8 °F 44.6 °F 40% 29.90 in 10.0 mi West 10.4 mph - N/A   Mostly Cloudy
2:35 PM 68.0 °F 46.4 °F 46% 29.90 in 10.0 mi NW 8.1 mph - N/A   Mostly Cloudy
2:55 PM 69.8 °F 46.4 °F 43% 29.89 in 10.0 mi NW 11.5 mph 16.1 mph N/A   Scattered Clouds
3:15 PM 68.0 °F 46.4 °F 46% 29.89 in 10.0 mi NW 6.9 mph - N/A   Mostly Cloudy
3:35 PM 68.0 °F 46.4 °F 46% 29.89 in 10.0 mi WNW 8.1 mph - N/A   Mostly Cloudy
3:55 PM 66.2 °F 46.4 °F 49% 29.89 in 10.0 mi NW 6.9 mph - N/A   Mostly Cloudy
4:15 PM 68.0 °F 46.4 °F 46% 29.89 in 10.0 mi West 6.9 mph - N/A   Scattered Clouds
4:35 PM 66.2 °F 44.6 °F 46% 29.89 in 10.0 mi WSW 9.2 mph - N/A   Scattered Clouds
4:55 PM 66.2 °F 46.4 °F 49% 29.89 in 10.0 mi West 8.1 mph - N/A   Scattered Clouds
5:15 PM 64.4 °F 46.4 °F 52% 29.89 in 10.0 mi West 6.9 mph - N/A   Clear
5:35 PM 64.4 °F 46.4 °F 52% 29.89 in 10.0 mi West 5.8 mph - N/A   Clear
5:55 PM 62.6 °F 46.4 °F 55% 29.89 in 10.0 mi Calm Calm - N/A   Clear
6:15 PM 59.0 °F 48.2 °F 67% 29.89 in 10.0 mi Calm Calm - N/A   Clear
6:35 PM 57.2 °F 50.0 °F 77% 29.89 in 10.0 mi Calm Calm - N/A   Clear
6:55 PM 55.4 °F 48.2 °F 77% 29.89 in 10.0 mi Calm Calm - N/A   Clear
7:15 PM 53.6 °F 50.0 °F 88% 29.90 in 10.0 mi Calm Calm - N/A   Clear
7:35 PM 53.6 °F 48.2 °F 82% 29.91 in 10.0 mi ESE 3.5 mph - N/A   Clear
7:55 PM 53.6 °F 48.2 °F 82% 29.90 in 10.0 mi Calm Calm - N/A   Clear
8:15 PM 51.8 °F 48.2 °F 88% 29.91 in 10.0 mi Calm Calm - N/A   Clear
8:35 PM 51.8 °F 48.2 °F 88% 29.91 in 10.0 mi Calm Calm - N/A   Clear
8:55 PM 51.8 °F 48.2 °F 88% 29.91 in 10.0 mi Calm Calm - N/A   Clear
9:35 PM 50.0 °F 46.4 °F 87% 29.91 in 10.0 mi Calm Calm - N/A   Clear
10:15 PM 48.2 °F 44.6 °F 87% 29.92 in 7.0 mi Calm Calm - N/A   Clear
10:35 PM 46.4 °F 44.6 °F 93% 29.92 in 10.0 mi Calm Calm - N/A   Clear
10:55 PM 46.4 °F 44.6 °F 93% 29.91 in 10.0 mi Calm Calm - N/A   Clear
11:15 PM 46.4 °F 44.6 °F 93% 29.91 in 10.0 mi Calm Calm - N/A   Clear
11:35 PM 46.4 °F 42.8 °F 87% 29.91 in 10.0 mi Calm Calm - N/A   Clear
11:55 PM 44.6 °F 42.8 °F 93% 29.91 in 5.0 mi Calm Calm - N/A   Clear